Regional Weather Roundup
Issued by NWS

Home | Current Version | Previous Version | Text Only | Print | Product List | Glossary On
Versions: 1 2 3 4 5 6 7 8 9 10 11 12 13 14 15 16 17 18 19 20 21 22 23 24 25 26 27
000
ASUS45 KTFX 041210
RWRMT
MONTANA REGIONAL WEATHER ROUNDUP
NATIONAL WEATHER SERVICE GREAT FALLS MT
500 AM MST SUN DEC 04 2016

NOTE: "FAIR" INDICATES FEW OR NO CLOUDS BELOW 12000 FEET WITH NO
SIGNIFICANT WEATHER AND/OR OBSTRUCTIONS TO VISIBILITY.

MTZ001>007-043-041300-
WEST OF THE DIVIDE

CITY           SKY/WX    TMP DP  RH WIND       PRES   REMARKS
KALISPELL      LGT SNOW  35  30  82 S10       29.75F WCI  27
MISSOULA       CLOUDY    31  30  96 SE7       29.87F WCI  24
BUTTE          CLOUDY    30  15  53 VRB3      29.86F
MULLAN PASS    SNOW      24  22  91 SW8       29.72F VSB 1/2 WCI  15
ANACONDA         N/A     30  18  59 S13       29.84F WCI  20
DEER LODGE       N/A     30  19  64 S8        29.86F WCI  23
EUREKA           N/A     36  30  80 SE15G21   29.71F WCI  26
HAMILTON         N/A     36  25  64 SE18      29.88F WCI  25
LIBBY            N/A     34  32  93 SE3       29.74F
PLAINS           N/A     35  29  79 CALM      29.83
RONAN            N/A     37  27  68 CALM      29.85F
$$

MTZ008-052>055-041300-
SOUTHWEST MONTANA

CITY           SKY/WX    TMP DP  RH WIND       PRES   REMARKS
BOZEMAN        CLOUDY    30  19  63 CALM      29.89S
DILLON         CLOUDY    24  14  65 S6        29.90F WCI  17
W YELLOWSTONE  CLOUDY    19  19 100 SW17G26   29.95F FOG     WCI   4
ENNIS          CLOUDY    27  18  69 S17G23    29.96S WCI  14
THREE FORKS      N/A     34  34 100 S5        29.88F
$$

MTZ009-010-012-014-046-048-049-054-041300-
EAST SLOPES AND CENTRAL MONTANA

CITY           SKY/WX    TMP DP  RH WIND       PRES   REMARKS
CUT BANK       PTCLDY    28  20  71 SW15      29.67F WCI  16
GREAT FALLS    CLOUDY    32  20  61 SW20      29.75F WCI  20
MALMSTROM AFB  CLOUDY    32  22  68 SW17G31   29.75F WCI  21
HELENA         CLOUDY    34  17  50 CALM      29.82F
AUGUSTA        MOCLDY    32  20  61 W24G31    29.70F WCI  19
BOWMANS CRNR     N/A     31  20  64 SW21      29.72F WCI  19
CHOTEAU          N/A     34  18  51 SW10      29.73F WCI  26
CONRAD           N/A     22  19  88 CALM      29.75F
FAIRFIELD      MOCLDY    33  19  56 S14G21    29.72F WCI  23
POWER            N/A     30  20  68 S10       29.72F WCI  21
RAYNESFORD     MOCLDY    34  19  54 S2        29.76F
ULM            MOCLDY    32  22  66 SW12G21   29.77F WCI  23
$$

MTZ011-013-016-021-045-047-050-051-041300-
NORTH CENTRAL MONTANA

CITY           SKY/WX    TMP DP  RH WIND       PRES   REMARKS
HAVRE          PTCLDY    32  22  66 SW13      29.73F WCI  22
LEWISTOWN      CLEAR     28  18  66 SW13      29.78F WCI  17
N BAR RANCH      N/A     32  12  43 W10G17    29.77F WCI  24
CHINOOK          N/A     34  21  60 W7        29.73F WCI  28
DENTON           N/A     27  19  71 W23G29    29.72F WCI  13
GEYSER         MOCLDY    31  19  61 W14       29.75F WCI  21
GRASS RANGE      N/A     29  20  68 W16       29.75F WCI  17
JUDITH GAP       N/A     29  17  58 W22G33    29.77F WCI  16
ROY              N/A     33  18  53 MISG      29.74F
STANFORD       MOCLDY    33  17  52 W23       29.75F WCI  21
WINIFRED         N/A     29  19  66 MISG      29.75F
$$

MTZ017>020-022>027-061-062-041300-
NORTHEAST MONTANA

CITY           SKY/WX    TMP DP  RH WIND       PRES   REMARKS
GLASGOW        CLEAR     21  18  88 S10       29.77F WCI  10
JORDAN           N/A     21  17  84 NW5       29.79F
SIDNEY         CLEAR     21  18  88 SW6       29.78F WCI  13
WOLF POINT     CLEAR     23  20  88 SW8       29.79F WCI  14
PLENTYWOOD       N/A     21  19  93 W6        29.73F WCI  14
POPLAR           N/A     21  19  93 W8        29.78F WCI  12
SCOBEY           N/A     12   0  59 CALM      29.74F
$$

MTZ028>42-056>058-041300-
SOUTHCENTRAL AND SOUTHEAST MONTANA

CITY           SKY/WX    TMP DP  RH WIND       PRES   REMARKS
BAKER          CLEAR     21  15  78 CALM      29.83F
BILLINGS       PTCLDY    32  14  47 SW10      29.83F WCI  24
LIVINGSTON     CLOUDY    34  16  47 SW29G37   29.83F WCI  20
MILES CITY     CLOUDY    32  18  56 W6        29.83F WCI  26
BIG TIMBER     CLOUDY    34  14  44 W17G25    29.85F WCI  23
EKALAKA          N/A     29  18  63 SW12      29.82F WCI  19
FORSYTH          N/A     34  18  51 SW6       29.83F WCI  29
HARLOWTON      MOCLDY    31  16  53 W15       29.80F WCI  21
LAUREL           N/A     29   9  43 S5        29.83F
ROUNDUP          N/A     27  14  57 SW7       29.75F WCI  20
$$

REGIONAL REPORTS...DAKOTAS

CITY           SKY/WX    TMP DP  RH WIND       PRES   REMARKS
WILLISTON      CLEAR     24  21  88 SW7       29.76S WCI  16
MINOT          CLOUDY    28  25  88 W18       29.70F WCI  15
DICKINSON      CLEAR     23  18  81 W15       29.76S WCI  10
BEACH            N/A     23  19  86 SW9       29.82F WCI  13
CROSBY         MOCLDY    27  27 100 W6        29.73F WCI  20
TIOGA          CLOUDY    30  30 100 NW15G23   29.73F WCI  19
WATFORD CITY     N/A     25  23  93 SW10      29.76F WCI  15
BISMARCK       CLOUDY    33  29  85 W14       29.76S WCI  23
FARGO          LGT SNOW  34  32  92 S14       29.76F FOG     WCI  25
BUFFALO SD       N/A     26  20  77 W13       29.76S WCI  15
RAPID CITY     CLEAR     25  18  74 NW10      29.89S WCI  15
$$

REGIONAL REPORTS...WYOMING/IDAHO/WASHINGTON

CITY           SKY/WX    TMP DP  RH WIND       PRES   REMARKS
GILLETTE       CLEAR     25  14  63 SW12      29.89S WCI  14
SHERIDAN       CLOUDY    29  15  56 W7        29.86F WCI  22
BUFFALO WY     CLOUDY    30  10  43 CALM      29.87F
CODY           CLOUDY    34  19  54 SW18G28   29.87F WCI  23
YELLOWSTONE LA   N/A     20  17  88 VRB7      29.92F WCI  11
IDAHO FALLS    CLOUDY    30  22  72 SW15      30.06F WCI  19
SALMON         CLOUDY    27  18  69 CALM      29.98F
BOISE          CLOUDY    39  28  64 S12       30.05F WCI  32
SPOKANE        CLOUDY    36  32  85 SW25G37   29.78F WCI  24
$$

REGIONAL REPORTS...ALBERTA

CITY           SKY/WX    TMP DP  RH WIND       PRES   REMARKS
EDMONTON       CLEAR     19  14  79 W9        29.63F WCI   9
CALGARY        MOCLDY    19  14  79 N7        29.61F WCI  10
LETHBRIDGE     MOCLDY    30  23  74 SW8       29.62F WCI  23
MEDICINE HAT   CLEAR     18  16  93 SW5       29.66F
WATERTON GATE    N/A     30  27  86 SW14G21     N/A  WCI  20
MILK RIVER       N/A     28  21  74 S8          N/A  WCI  20
$$

REGIONAL REPORTS...SASKATCHEWAN

CITY           SKY/WX    TMP DP  RH WIND       PRES   REMARKS
SWIFT CURRENT  MOCLDY    19  16  86 SW15      29.64F WCI   5
REGINA         FOG       25  25 100 NW6       29.69F VSB 3/4 WCI  18
SASKATOON      PTCLDY    14  12  92 S5        29.67F
CYPRESS HILLS    N/A     27  18  69 W7          N/A  WCI  19
VAL MARIE        N/A     10   7  85 E1          N/A
ROCKGLEN         N/A     18  16  93 W8          N/A  WCI   7
ASSINIBOIA       N/A     18  12  79 SW9         N/A  WCI   6
$$




USA.gov is the U.S. government's official web portal to all federal, state and local government web resources and services.